Weather in Elia

Greece     40°08′50″N   23°44′00″E
temp.,
°C
wind,
m/s
gust,
m/s
humid.,
%
clouds,
%
prec.,
mm/h
press.,
hPa
HPBL,
m
18 august, thu
thu1800:00+27wnw22595 0.0 101011
03:00+27wnw22560 0.0 101012
06:00+27nne11570 0.0 101011
09:00+28ne22530 0.0 101170
12:00+29sse11480 0.0 1011427
15:00+30ssw33470 0.0 1010402
18:00+31s35490 0.0 1008147
21:00+28sw33610 0.0 100924
19 august, fri
fri1900:00+27wsw23600 0.0 100919
03:00+27ne34570 0.0 100940
06:00+26ne45710 0.0 1009167
09:00+27ne34640 0.0 1011139
12:00+27e33610 0.0 1011174
15:00+29se44580 0.0 1010189
18:00+29sse22600 0.0 1008125
21:00+27n12645 0.0 100815
20 august, sat
sat2000:00+27ene11631 0.0 100912
03:00+26ne44674 0.0 100971
06:00+26ne45754 0.0 1010175
09:00+27ne33700 0.0 1010160
12:00+28ene32580 0.0 1010225
15:00+28ese325995 0.0 1009271
18:00+29ssw12590 0.0 1007164
21:00+27ene22625 0.0 100714
21 august, sun
sun2100:00+26nne336440 0.6 100742
03:00+26nne4466100 0.8 100776
06:00+25nne456967 0.0 1006141
09:00+26ne45684 0.0 1007297
12:00+27e45630 0.0 1007248
15:00+27ese56630 0.0 1005252
18:00+27se11590 0.0 1004153
21:00+27nnw11650 0.0 100311
22 august, mon
mon2200:00+27ne33591 0.0 100425
03:00+25nne56710 0.0 1004218
06:00+25ne45722 0.0 1004346
09:00+26ene35705 0.0 1004477
12:00+26e666966 0.0 1005384
15:00+26ese67654 0.0 1005301
18:00+27se22628 0.0 1004154
21:00+26nw11673 0.0 100415